STARLINK-4296, 52995

Orbit data source: Space-Track

STARLINK-4296, 52995 is a payload satellite owned by SpaceX/Seattle (US) in LEO that was launched on Thu, 07 Jul 2022 UTC via an FALCON 9 launch vehicle from the Air Force Eastern Test Range (AFETR). Payload-class satellites include a variety of spacecraft equipped with specific instruments for various scientific and technological missions. These include communications satellites like Starlink; space stations such as the ISS; scientific satellites like the Hubble; Earth observation satellites from companies like Planet Labs, Umbra, and HawkEye 360; GPS; miniature CubeSats for education and research; and military/defense satellites.

Loading next visibility...
Identifier
52995, 2022-076K
Orbit
LEO
Country
Flag of USUS
Related business
Manufacturer
SpaceX/Seattle
Mission
Operational Commercial Communications
Bus & Motor
STARLINK, Unknown motor
Mass
297 kg wet, ~275 kg dry
Launch date (UTC)
2022-07-07 (3 years ago)
Launch vehicle
FALCON 9
Launch site
Air Force Eastern Test Range (AFETR)
Object type
Payload
Rocket body
Debris
Shape & HBR
Box + 1 Pan, 10.1 m
Radar Cross Section
13.562 m², Large (>1 m²)

Expand to show TLE details & history
Last TLE update: 22 hours ago

TLE from 22 hours ago
0 STARLINK-4296
1 52995U 22076K   25340.89072268 -.00001659  00000-0 -86121-4 0  9998
2 52995  53.2171 150.7123 0001418  88.8830 271.2325 15.08847528188837
Epoch: 2025-12-06T21:22Z
TLE epoch observation values (Epoch: 2025-12-06T21:22:38.439Z)
Latitude
Longitude
114.14018°
Altitude
540.597 km
Speed
7.593 km/s
True Right ascension
10h 02m 50s
True Declination
0° 00' 00"
Sunlit
Object was in daylight at epoch
Visualization orbit readout
Latitude
Unknown
Longitude
Unknown
Altitude
Unknown
Speed
Unknown
Apparent Right ascension
Unknown
Apparent Declination
Unknown
Sunlit
N/A
Visualization observer readout
Local Sidereal Time
16:59:57
Azimuth
Unknown
Elevation
Unknown
Doppler factor
Unknown
Orbital elements
Apogee altitude
540.946 km
Perigee altitude
538.984 km
Semi-major axis
6,918.102 km
Eccentricity
0.00014
Inclination
53.2171°
RAAN
150.7123°
Arg. of periapsis
88.883°
True anomaly
271.21625°
Mean anomaly
271.2325°
Eccentric anomaly
271.22438°
Mean motion
3.77192 °/min
Orbital period
95.44 mins
BSTAR
-0.000086121
Loading maneuver chart data...
Computing Atmospheric mass density...
Loading historical data...
Loading historical data...
Loading historical data...
Loading historical data...
Loading historical data...
Loading historical data...
Loading historical data...

Documentation

Showing up to 5 results
|